[[{"header":{"parameterUnit":"m.s-1","parameterCategory":1,"la1":30.2991,"la2":30.254,"lo1":-89.0895,"lo2":-89.0444,"dy":0.0017,"dx":0.0017,"nx":28,"ny":28,"refTime":"2025-09-06T03:00:00:Z","depth":0,"parameterNumber":2,"parameterNumberName":"U-component_of_WINDS"},"data":[0,0,0,0,0,0,0,0,0,0,0,0,0,0,0,0,0,0,0,0,0,0,0,0,0,0,0,0,0,0,0,0,0,0,0,0,0,0,0,0,0,0,0,0,0,0,0,0,0,0,0,0,0,0,0,0,0,0,-0.9731,-0.9731,0,-0.9763,-0.9763,-0.9763,-0.9726,-0.9724,-0.9723,-0.9722,-0.9756,-0.9758,-0.976,0,0,0,0,0,0,0,0,0,0,0,0,0,-0.9638,-0.964,-0.9731,-0.9731,-0.9732,-0.9763,-0.9763,-0.9763,-0.9726,-0.9724,-0.9723,-0.9721,-0.9755,-0.9758,-0.976,0,0,0,0,0,0,0,0,0,0,0,0,0,-0.9675,-0.9641,-0.9731,-0.9717,-0.9716,-0.9763,-0.9763,-0.9764,-0.9726,-0.9724,-0.9722,-0.972,-0.9754,-0.9757,-0.9761,-0.9823,0,0,-0.9771,-0.9772,0,0,0,0,0,0,0,0,-0.9673,-0.9679,-0.9718,-0.9718,-0.9717,-0.9738,-0.9743,-0.9784,-0.9727,-0.9722,-0.9722,-0.9719,-0.9752,-0.9755,-0.9766,-0.9825,-0.9826,-0.9771,-0.9773,-0.9775,-0.9776,0,0,0,0,0,0,0,-0.9671,-0.9677,-0.9744,-0.9719,-0.9718,-0.9709,-0.9712,-0.975,-0.9749,-0.9723,-0.972,-0.9724,-0.9751,-0.9763,-0.9766,-0.9827,-0.9771,-0.9774,-0.9776,-0.9777,-0.9938,-0.994,0,0,0,0,0,0,-0.967,-0.9675,-0.9743,-0.9744,-0.9689,-0.9712,-0.9716,-0.9733,-0.9748,-0.9748,-0.9726,-0.9722,-0.9758,-0.9762,-0.9767,-0.9841,-0.9775,-0.9778,-0.978,-0.9935,-0.9938,-0.9941,0,0,0,0,0,0,-0.9668,-0.9676,-0.9741,-0.9709,-0.9717,-0.9716,-0.9737,-0.9735,-0.9747,-0.975,-0.975,-0.9738,-0.9756,-0.9763,-0.9809,-0.9842,-0.9779,-0.9782,-0.9933,-0.9936,-0.9939,-0.9989,0,0,0,0,0,0,-0.9665,-0.9676,-0.9699,-0.971,-0.9719,-0.9783,-0.9739,-0.9737,-0.9753,-0.9748,-0.9762,-0.9762,-0.9755,-0.9804,-0.9813,-0.9845,-0.9785,-0.993,-0.9934,-0.9938,-0.9985,-0.9994,-1.0002,0,0,0,0,0,-0.9662,-0.9713,-0.9701,-0.9709,-0.9748,-0.9785,-0.979,-0.978,-0.9755,-0.9779,-0.9781,-0.9762,-0.9837,-0.981,-0.9818,-0.9852,-0.9928,-0.9933,-0.9938,-0.9981,-0.9992,-1.0002,0,0,0,0,0,0,-0.9707,-0.9714,-0.9701,-0.9756,-0.977,-0.9778,-0.9808,-0.9793,-0.9814,-0.9809,-0.9797,-0.98,-0.985,-0.9856,-0.9825,-0.9913,-0.9878,-0.9885,-0.9908,-0.9918,-0.9927,-0.9925,-0.9788,0,0,0,0,0,-0.9723,-0.9752,-0.9757,-0.9805,-0.9813,-0.9809,-0.9825,-0.9816,-0.983,-0.9836,-0.9842,-0.9856,-0.9883,-0.9901,-0.9926,-0.9985,-0.9987,-1.0012,-1.0021,-1.0028,-1.0034,-1.0065,-1.0076,-0.9957,-0.9957,-0.9957,0,0,-0.9758,-0.9765,-0.9784,-0.9814,-0.9824,-0.9854,-0.9815,-0.9848,-0.9871,-0.9841,-0.9886,-0.989,-0.9905,-0.9958,-0.9982,-0.9965,-1.0068,-1.0034,-1.004,-1.0043,-1.0072,-1.0083,-1.0093,-0.9961,-0.996,-0.996,0,0,-0.9835,-0.9844,-0.9885,-0.9895,-0.9909,-0.9907,-0.9916,-0.9927,-0.9928,-0.9972,-0.995,-0.9976,-1.0023,-1.0034,-1.0046,-1.0126,-1.0109,-1.0135,-1.018,-1.021,-1.0219,-1.0228,-1.0256,-1.0266,-1.0141,-1.0141,-1.0141,0,-0.9877,-0.9921,-0.9908,-0.9943,-0.9957,-0.993,-0.9972,-0.9982,-1.0005,-1.0015,-0.9994,-1.0051,-1.006,-1.0115,-1.0134,-1.0145,-1.0155,-1.0134,-1.0219,-1.0227,-1.0235,-1.0261,-1.0272,-1.0144,-1.0144,-1.0144,-1.0143,0,-0.997,-1.0001,-1.0032,-1.0053,-1.007,-1.0108,-1.0101,-1.012,-1.011,-1.0109,-1.0153,-1.0162,-1.0188,-1.02,-1.0191,-1.0253,-1.0242,-1.0221,-1.0185,-1.0249,-1.0274,-1.0284,-1.0149,-1.0147,-1.0147,-1.0146,0,0,-1.0079,-1.0091,-1.0103,-1.0111,-1.0125,-1.0148,-1.0185,-1.0209,-1.0225,-1.0241,-1.0271,-1.031,-1.029,-1.0303,-1.0294,-1.0321,-1.0383,-1.0296,-1.0296,-1.0312,-1.0452,-1.0468,-1.048,-1.0371,-1.0373,-1.0374,-1.045,0,-1.0156,-1.0219,-1.0208,-1.0269,-1.0296,-1.0271,-1.0302,-1.0314,-1.0314,-1.0337,-1.0337,-1.0365,-1.0336,-1.0344,-1.0369,-1.037,-1.0411,-1.0364,-1.0399,-1.04,-1.0396,-1.0493,-1.0511,-1.0582,-1.046,-1.0462,-1.0463,0,-1.0256,-1.0274,-1.0337,-1.0345,-1.0356,-1.0385,-1.0405,-1.0428,-1.044,-1.0438,-1.0452,-1.0438,-1.0474,-1.0437,-1.0486,-1.0455,-1.0468,-1.0471,-1.0473,-1.0476,-1.0436,-1.0499,-1.0605,-1.0615,-1.0478,-1.0477,-1.0476,0,-1.0328,-1.0369,-1.0412,-1.042,-1.043,-1.045,-1.0456,-1.0466,-1.048,-1.0498,-1.0508,-1.053,-1.0542,-1.0559,-1.0551,-1.0526,-1.0602,-1.0565,-1.0601,-1.0601,-1.0619,-1.0618,-1.0728,-1.0627,-1.0627,-1.0627,-1.0626,0,-1.0417,-1.0456,-1.0444,-1.0471,-1.0514,-1.0501,-1.0544,-1.0546,-1.0555,-1.0581,-1.056,-1.0585,-1.0573,-1.0597,-1.0591,-1.0632,-1.0638,-1.0637,-1.0635,-1.0639,-1.0639,-1.0648,-1.0642,-1.0629,-1.0629,-1.0628,-1.0628,0,-1.0506,-1.0499,-1.0544,-1.0549,-1.0551,-1.0583,-1.0587,-1.0612,-1.0609,-1.0642,-1.0649,-1.0646,-1.0673,-1.0666,-1.0696,-1.0692,-1.0743,-1.0735,-1.0739,-1.0737,-1.0773,-1.077,-1.0893,-1.0908,-1.0798,-1.0799,-1.08,0,-1.0562,-1.0592,-1.06,-1.0616,-1.0622,-1.0648,-1.0662,-1.065,-1.0666,-1.0681,-1.0703,-1.0728,-1.0748,-1.0792,-1.0792,-1.0814,-1.0806,-1.0848,-1.081,-1.0812,-1.0806,-1.0805,-1.0807,-1.0856,-1.0857,-1.0858,-1.0859,0,-1.0664,-1.0659,-1.068,-1.07,-1.0718,-1.0733,-1.0747,-1.0761,-1.0749,-1.0768,-1.0795,-1.081,-1.0839,-1.0864,-1.0884,-1.089,-1.0872,-1.0871,-1.088,-1.0885,-1.0886,-1.0885,-1.076,-1.0868,-1.0867,-1.0866,-1.0866,-1.0866,-1.0738,-1.0763,-1.0772,-1.0796,-1.0805,-1.0818,-1.084,-1.084,-1.0862,-1.0885,-1.0876,-1.0906,-1.0916,-1.0941,-1.0949,-1.0972,-1.0957,-1.0971,-1.0974,-1.0978,-1.0982,-1.0882,-1.0976,-1.0976,-1.0976,-1.0975,-1.0975,0,-1.0839,-1.0842,-1.0865,-1.0884,-1.0903,-1.0883,-1.0897,-1.0914,-1.0941,-1.0952,-1.0971,-1.1001,-1.1024,-1.1025,-1.1047,-1.1066,-1.1058,-1.1072,-1.1071,-1.1072,-1.0995,-1.0985,-1.1078,-1.1078,-1.1078,-1.1078,-1.1078,-1.1078,-1.0893,-1.0933,-1.0929,-1.0973,-1.0977,-1.1006,-1.1015,-1.1027,-1.1035,-1.1069,-1.1088,-1.1088,-1.1095,-1.1117,-1.1137,-1.1137,-1.1146,-1.1163,-1.1159,-1.1088,-1.1078,-1.1068,-1.1058,-1.1165,-1.1165,-1.1234,-1.1235,-1.1235]},{"header":{"parameterUnit":"m.s-1","parameterCategory":1,"la1":30.2991,"la2":30.254,"lo1":-89.0895,"lo2":-89.0444,"dy":0.0017,"dx":0.0017,"nx":28,"ny":28,"refTime":"2025-09-06T03:00:00:Z","depth":0,"parameterNumber":3,"parameterNumberName":"V-component_of_WINDS"},"data":[0,0,0,0,0,0,0,0,0,0,0,0,0,0,0,0,0,0,0,0,0,0,0,0,0,0,0,0,0,0,0,0,0,0,0,0,0,0,0,0,0,0,0,0,0,0,0,0,0,0,0,0,0,0,0,0,0,0,-4.954,-4.9541,0,-4.9601,-4.9602,-4.9602,-4.9545,-4.9542,-4.954,-4.9538,-4.9595,-4.9598,-4.9602,0,0,0,0,0,0,0,0,0,0,0,0,0,-4.9369,-4.9372,-4.954,-4.9541,-4.9542,-4.9601,-4.9602,-4.9602,-4.9545,-4.9542,-4.954,-4.9537,-4.9594,-4.9598,-4.9602,0,0,0,0,0,0,0,0,0,0,0,0,0,-4.9438,-4.9373,-4.954,-4.952,-4.9519,-4.9601,-4.9602,-4.9603,-4.9546,-4.9542,-4.9539,-4.9536,-4.9592,-4.9598,-4.9603,-4.9705,0,0,-4.962,-4.9622,0,0,0,0,0,0,0,0,-4.9434,-4.9444,-4.9522,-4.9522,-4.9521,-4.9562,-4.9562,-4.9637,-4.9547,-4.9535,-4.9538,-4.9534,-4.9586,-4.9592,-4.9611,-4.9708,-4.971,-4.962,-4.9624,-4.9626,-4.9627,0,0,0,0,0,0,0,-4.9429,-4.9441,-4.9564,-4.9524,-4.9523,-4.9507,-4.9513,-4.9576,-4.9579,-4.9536,-4.9532,-4.954,-4.9585,-4.9606,-4.9612,-4.9711,-4.962,-4.9625,-4.9628,-4.963,-4.9894,-4.9898,0,0,0,0,0,0,-4.9427,-4.9437,-4.9562,-4.9566,-4.9468,-4.9512,-4.9519,-4.9552,-4.9578,-4.9579,-4.9543,-4.9538,-4.9598,-4.9605,-4.9614,-4.9734,-4.9626,-4.9631,-4.9634,-4.989,-4.9895,-4.9899,0,0,0,0,0,0,-4.9424,-4.9439,-4.956,-4.9501,-4.9515,-4.9519,-4.9556,-4.9555,-4.9576,-4.9584,-4.9584,-4.9564,-4.9596,-4.9606,-4.9683,-4.9735,-4.9633,-4.9638,-4.9886,-4.9892,-4.9897,-4.9977,0,0,0,0,0,0,-4.9419,-4.9438,-4.9478,-4.9502,-4.9518,-4.963,-4.956,-4.9559,-4.9586,-4.9579,-4.9603,-4.9604,-4.9594,-4.9675,-4.9689,-4.9741,-4.9643,-4.9881,-4.9889,-4.9895,-4.997,-4.9985,-4.9998,0,0,0,0,0,-4.9413,-4.9497,-4.9481,-4.9496,-4.9569,-4.9633,-4.9642,-4.963,-4.959,-4.963,-4.9635,-4.9603,-4.9728,-4.9684,-4.9698,-4.9753,-4.9878,-4.9887,-4.9895,-4.9964,-4.9982,-4.9997,0,0,0,0,0,0,-4.9478,-4.95,-4.9482,-4.9577,-4.9604,-4.9623,-4.9673,-4.965,-4.9688,-4.9679,-4.9661,-4.9667,-4.9749,-4.9759,-4.9709,-4.9853,-4.9796,-4.9808,-4.9844,-4.9861,-4.9875,-4.987,-4.9647,0,0,0,0,0,-4.9503,-4.9556,-4.9572,-4.9653,-4.9668,-4.9669,-4.9696,-4.9685,-4.9711,-4.9722,-4.9733,-4.9758,-4.9803,-4.9832,-4.9874,-4.9971,-4.9975,-5.0016,-5.003,-5.0041,-5.0051,-5.0102,-5.012,-4.9927,-4.9926,-4.9926,0,0,-4.9556,-4.9575,-4.9608,-4.9667,-4.9687,-4.9739,-4.9678,-4.9737,-4.9775,-4.973,-4.9804,-4.9813,-4.984,-4.9927,-4.9966,-4.9938,-5.0106,-5.0052,-5.0061,-5.0065,-5.0113,-5.0131,-5.0147,-4.9932,-4.9931,-4.993,0,0,-4.9679,-4.9699,-4.9769,-4.9791,-4.9822,-4.9821,-4.9838,-4.9862,-4.9867,-4.9941,-4.9908,-4.9952,-5.003,-5.0051,-5.0071,-5.0202,-5.0174,-5.0216,-5.0288,-5.0338,-5.0353,-5.0367,-5.0412,-5.0429,-5.0226,-5.0227,-5.0227,0,-4.974,-4.982,-4.9808,-4.9869,-4.9895,-4.9859,-4.9928,-4.9949,-4.9991,-5.0009,-4.9978,-5.0074,-5.009,-5.0181,-5.0213,-5.0232,-5.0249,-5.0213,-5.0353,-5.0366,-5.0378,-5.0421,-5.0439,-5.0231,-5.0231,-5.023,-5.023,0,-4.9892,-4.9948,-5.0001,-5.0045,-5.0077,-5.0142,-5.0138,-5.0172,-5.0158,-5.016,-5.0235,-5.0253,-5.0298,-5.0319,-5.0305,-5.0408,-5.0389,-5.0356,-5.0298,-5.0402,-5.0442,-5.0458,-5.0238,-5.0237,-5.0235,-5.0234,0,0,-5.0056,-5.0094,-5.0113,-5.0133,-5.0165,-5.0206,-5.0269,-5.0314,-5.0343,-5.0373,-5.0424,-5.0491,-5.046,-5.0484,-5.0472,-5.0516,-5.0617,-5.0476,-5.0477,-5.0501,-5.073,-5.0755,-5.0774,-5.0599,-5.0602,-5.0605,-5.0727,0,-5.0179,-5.0291,-5.0282,-5.0386,-5.0437,-5.0403,-5.0458,-5.0482,-5.0486,-5.0528,-5.0532,-5.0579,-5.0535,-5.0549,-5.0591,-5.0596,-5.0663,-5.0587,-5.0644,-5.0647,-5.0638,-5.0795,-5.0821,-5.0936,-5.0743,-5.0746,-5.0748,0,-5.0338,-5.0376,-5.0486,-5.051,-5.0531,-5.058,-5.062,-5.0662,-5.0688,-5.0688,-5.0715,-5.0695,-5.0757,-5.0699,-5.0782,-5.0731,-5.0754,-5.076,-5.0764,-5.0767,-5.0703,-5.0802,-5.0973,-5.0989,-5.0773,-5.0771,-5.0769,0,-5.0445,-5.0524,-5.0599,-5.0617,-5.0647,-5.0683,-5.0697,-5.072,-5.0747,-5.0782,-5.08,-5.0841,-5.0863,-5.0894,-5.0885,-5.0844,-5.097,-5.0912,-5.097,-5.097,-5.0997,-5.0995,-5.1172,-5.1014,-5.1014,-5.1013,-5.1013,0,-5.0583,-5.0651,-5.0648,-5.0695,-5.0769,-5.0758,-5.0832,-5.0841,-5.0862,-5.0908,-5.0881,-5.0925,-5.0912,-5.0954,-5.0948,-5.1017,-5.1027,-5.1027,-5.1025,-5.1029,-5.1029,-5.1043,-5.1034,-5.1018,-5.1017,-5.1016,-5.1015,0,-5.0714,-5.0716,-5.0796,-5.0819,-5.0826,-5.088,-5.0898,-5.0941,-5.0943,-5.1002,-5.1015,-5.1018,-5.1067,-5.1062,-5.1116,-5.1111,-5.1197,-5.1185,-5.1189,-5.1185,-5.1243,-5.1238,-5.1435,-5.1459,-5.1286,-5.1288,-5.129,0,-5.0802,-5.0854,-5.0882,-5.0913,-5.0929,-5.0978,-5.1006,-5.0997,-5.1027,-5.1061,-5.11,-5.1146,-5.1183,-5.1262,-5.1267,-5.1308,-5.1296,-5.1363,-5.1302,-5.1305,-5.1296,-5.1292,-5.1297,-5.1374,-5.1376,-5.1378,-5.1379,0,-5.0956,-5.0954,-5.0997,-5.1041,-5.1076,-5.1109,-5.1139,-5.1165,-5.1158,-5.1193,-5.1244,-5.1273,-5.1328,-5.1374,-5.1413,-5.1425,-5.1401,-5.1399,-5.1414,-5.1418,-5.1418,-5.1417,-5.122,-5.1394,-5.1392,-5.1391,-5.139,-5.139,-5.1067,-5.1111,-5.1139,-5.1187,-5.121,-5.1239,-5.128,-5.1288,-5.1331,-5.1377,-5.1368,-5.1424,-5.1448,-5.1498,-5.1514,-5.1557,-5.1532,-5.1555,-5.156,-5.1566,-5.1572,-5.1412,-5.1564,-5.1564,-5.1563,-5.1563,-5.1563,0,-5.1218,-5.1235,-5.128,-5.1324,-5.1362,-5.1338,-5.137,-5.1403,-5.1454,-5.1479,-5.1516,-5.1574,-5.1618,-5.1628,-5.167,-5.1702,-5.1692,-5.1713,-5.171,-5.1713,-5.1592,-5.1574,-5.1721,-5.1721,-5.1721,-5.1721,-5.1721,-5.1721,-5.1301,-5.1375,-5.1377,-5.146,-5.1475,-5.1532,-5.1552,-5.1578,-5.1599,-5.1665,-5.1702,-5.1709,-5.1728,-5.1771,-5.181,-5.1812,-5.1827,-5.1853,-5.185,-5.1737,-5.1721,-5.1706,-5.1689,-5.1857,-5.1857,-5.1967,-5.1968,-5.1969]}]]